Location: Newark
(48.6676°N, 6.1917°E)
Time: 07:36:04
(UTC+00:00)

N. Korean satellite - Pass Details

Date: 16 December 2019
Orbit: 454 x 507 km, 97.2° (Epoch: 27 January)

Event Time Altitude Azimuth Distance (km) Brightness Sun altitude
Rises 17:46:49 0° 214° (SW) 2,594 11.0 -19.8°
Reaches altitude 10° 17:49:59 10° 244° (WSW) 1,709 10.5 -20.4°
Maximum altitude 17:51:37 13° 271° (W) 1,553 10.2 -20.6°
Drops below altitude 10° 17:53:15 10° 297° (WNW) 1,706 10.0 -20.9°
Sets 17:56:25 0° 328° (NNW) 2,583 10.5 -21.4°
